Temperature
4 4 4 5 5 5 5 6 6 6 6 7 7 7 8 8 8 8 9 9 9 9 10 10 10 10 10 10 10 10 10 9 9 9 9 9 9 9 10 10 10 10 10
3 3 4 4 4 4 5 5 5 6 6 6 6 7 7 8 8 8 8 9 9 9 9 9 9 9 9 9 9 9 9 9 9 9 8 8 9 9 9 9 9 9 9
3 3 3 4 4 4 4 5 5 5 5 5 6 6 6 7 7 7 8 8 8 8 9 9 9 9 9 9 9 9 9 9 9 9 9 9 9 9 9 9 9 9 9
2 2 2 3 3 3 4 4 4 5 5 5 5 5 6 6 7 7 7 7 7 8 8 8 8 8 9 9 9 9 9 8 8 8 9 9 9 8 8 8 9 9 9
2 2 2 2 3 3 3 4 4 4 4 4 5 5 5 6 6 6 6 7 7 7 7 8 8 8 8 8 8 8 8 8 8 8 8 8 9 8 8 8 8 8 8
2 2 2 2 2 3 3 3 3 3 4 4 4 4 5 5 6 6 6 6 6 7 7 7 7 8 8 8 8 8 8 8 8 8 8 8 8 8 8 8 8 8 8
1 1 1 2 2 2 2 2 3 3 3 3 4 4 4 5 5 6 6 6 6 6 6 7 7 7 7 7 7 7 7 7 7 8 8 8 8 8 8 8 8 7 8
1 1 1 1 1 2 2 2 2 2 2 3 3 4 4 4 5 5 5 5 5 6 6 6 6 7 7 7 7 7 7 7 7 7 7 7 7 8 8 8 8 7 7
0 0 1 1 1 1 2 2 2 2 2 2 2 3 3 4 4 4 5 5 5 5 5 6 6 6 6 6 6 6 6 7 7 7 7 7 7 7 7 7 7 7 7
-0 -0 0 0 1 1 1 2 2 2 2 2 2 2 3 3 3 4 4 4 5 5 5 5 6 6 6 6 6 6 6 6 6 6 7 7 7 7 7 7 7 7 7
-1 -1 0 0 0 1 1 1 1 2 2 2 2 2 2 3 3 3 4 4 4 4 5 5 5 5 5 5 5 5 6 6 6 6 6 6 6 6 6 6 6 6 6
-2 -1 -1 -0 -0 0 0 1 1 1 1 1 1 2 2 2 3 3 3 4 4 4 4 4 4 4 5 5 5 5 5 5 5 6 6 6 6 6 6 6 6 6 6
-2 -2 -1 -1 -1 -0 -0 0 0 1 1 1 1 1 1 2 2 3 3 3 4 4 4 4 4 4 4 4 4 5 5 5 5 5 5 5 6 6 6 6 6 6 6
-2 -2 -2 -2 -1 -1 -1 -0 -0 0 0 0 1 1 1 1 2 2 3 3 3 3 3 4 4 4 4 4 4 4 4 5 5 5 5 5 5 5 6 5 5 5 5
-3 -3 -3 -2 -2 -2 -1 -1 -1 -0 -0 0 0 1 1 1 1 2 2 3 3 3 3 3 3 3 3 3 3 4 4 4 4 4 4 5 5 5 5 5 5 5 5
-4 -4 -3 -3 -3 -2 -2 -2 -1 -1 -1 -0 0 0 1 1 1 1 2 2 2 2 2 2 3 3 3 3 3 3 3 4 4 4 4 4 4 4 5 5 5 5 4
-4 -4 -4 -4 -3 -3 -3 -2 -2 -1 -1 -1 -0 -0 0 1 1 1 1 1 2 2 2 2 2 2 3 3 3 3 3 3 3 3 3 4 4 4 4 4 4 4 4
-5 -5 -4 -4 -4 -4 -3 -3 -2 -2 -2 -1 -1 -1 -0 0 0 1 1 1 1 1 2 2 2 2 2 2 2 2 2 2 3 3 3 3 3 3 4 3 3 3 3
-5 -5 -5 -5 -4 -4 -4 -3 -3 -2 -2 -1 -1 -1 -1 -0 -0 0 1 1 1 1 1 1 1 1 1 1 1 2 2 2 2 2 2 2 2 3 3 3 3 3 3
-5 -5 -5 -5 -4 -4 -4 -4 -3 -3 -2 -2 -2 -1 -1 -1 -0 -0 0 0 0 0 1 1 1 1 1 1 1 1 1 1 1 1 1 2 2 2 2 2 2 2 2
-6 -5 -5 -5 -5 -4 -4 -4 -4 -3 -3 -2 -2 -2 -1 -1 -1 -1 -0 -0 -0 -0 0 0 0 0 0 1 1 1 1 1 1 1 1 1 1 1 1 1 1 1 1
-6 -6 -6 -5 -5 -5 -5 -4 -4 -4 -3 -3 -2 -2 -2 -2 -1 -1 -1 -1 -1 -1 -0 -0 -0 -0 -0 0 0 0 0 0 0 1 1 1 1 1 1 1 1 1 1
-6 -6 -6 -6 -5 -5 -5 -5 -4 -4 -4 -3 -3 -2 -2 -2 -2 -2 -1 -1 -1 -1 -1 -1 -1 -1 -1 -1 -0 -0 -0 -0 -0 0 0 0 0 0 0 0 0 0 0
-6 -6 -6 -6 -6 -6 -5 -5 -5 -4 -4 -4 -3 -3 -3 -2 -2 -2 -2 -2 -2 -2 -1 -1 -1 -1 -1 -1 -1 -1 -1 -1 -1 -1 -1 -1 -1 -0 -0 -0 -0 -0 -0
-7 -7 -7 -6 -6 -6 -6 -5 -5 -5 -4 -4 -4 -4 -3 -3 -3 -2 -2 -2 -2 -2 -2 -2 -2 -2 -2 -2 -1 -1 -2 -1 -1 -1 -1 -1 -1 -1 -1 -1 -1 -1 -1
-7 -7 -7 -7 -6 -6 -6 -6 -5 -5 -5 -5 -4 -4 -4 -3 -3 -3 -2 -2 -2 -2 -2 -2 -2 -2 -2 -2 -2 -2 -2 -2 -2 -2 -2 -2 -2 -2 -2 -2 -2 -2 -2
Wind_Speed
4 3 3 2 2 2 3 3 3 3 3 3 3 3 3 2 2 2 3 5 4 6 5 5 6 7 7 8 8 7 8 6 6 5 3 2 1 2 2 2 3 3 3
4 4 4 3 2 3 4 4 3 4 4 4 4 3 3 3 2 2 3 4 5 6 6 6 6 7 7 8 8 7 6 5 5 5 4 3 3 2 2 2 3 3 3
5 4 4 4 4 4 4 4 4 4 4 4 3 2 2 2 2 3 3 4 4 5 6 7 7 6 7 7 9 9 7 7 6 5 4 3 3 3 3 4 3 3 3
5 5 5 5 5 5 5 5 4 4 4 4 4 5 5 4 4 4 3 4 4 5 6 6 7 7 6 7 8 8 7 8 7 6 3 2 2 3 3 4 4 4 3
5 6 6 6 6 5 4 4 4 4 4 4 5 6 5 4 3 3 4 5 4 5 6 6 6 6 6 6 7 7 8 7 8 6 5 4 3 3 3 4 4 4 4
6 6 6 6 6 5 4 4 4 5 5 5 5 6 6 5 4 5 5 5 4 4 5 6 7 7 6 6 7 7 9 8 8 7 6 5 4 4 4 4 5 4 4
6 6 6 6 6 5 5 4 5 5 5 5 5 6 6 6 6 6 6 5 5 4 5 6 7 6 6 7 7 6 7 8 8 8 7 6 5 4 3 3 4 4 2
6 7 7 6 6 6 5 5 5 5 5 5 5 6 6 5 5 6 6 6 5 5 6 6 7 7 7 7 7 6 6 6 7 7 7 5 5 5 5 4 4 4 3
7 7 7 7 6 6 6 6 5 5 5 5 6 6 6 5 6 7 6 6 5 5 6 7 7 7 7 7 7 5 6 6 6 6 6 5 5 5 5 4 5 4 4
8 7 6 7 6 6 5 5 5 5 5 5 5 5 6 6 6 6 6 6 7 6 7 7 7 8 7 7 7 6 6 6 6 5 7 6 5 4 4 5 5 5 4
9 8 7 6 6 5 5 4 4 4 4 5 5 5 6 6 6 6 6 7 7 7 8 8 8 8 7 7 7 7 7 7 7 6 7 7 7 5 5 4 5 5 4
8 8 7 7 6 5 5 3 4 4 4 5 5 6 5 6 6 6 6 7 7 7 8 8 8 7 7 8 8 8 8 8 8 8 7 7 6 7 6 6 6 6 6
8 8 7 6 6 5 5 4 4 4 4 5 5 5 5 6 6 6 6 6 7 7 8 8 8 8 8 8 9 9 8 8 8 8 8 8 8 8 7 7 6 5 5
8 8 8 7 7 6 5 5 5 5 4 4 4 5 5 5 6 6 6 6 6 7 7 8 8 8 8 8 8 8 8 8 8 8 8 8 8 8 8 7 7 6 6
9 9 8 8 8 7 6 6 6 6 5 5 5 5 5 4 5 5 6 6 6 7 7 7 8 8 7 7 8 8 8 8 8 7 7 8 8 7 6 6 7 7 6
10 10 10 9 8 8 7 7 6 6 6 5 5 5 4 4 4 4 5 6 6 6 6 7 8 8 7 8 9 8 8 8 8 8 8 7 8 7 7 7 7 8 8
10 10 10 9 9 8 7 7 7 6 6 5 5 5 4 4 4 4 4 5 5 5 6 6 7 7 8 8 9 9 8 8 8 9 8 6 7 8 7 8 8 9 10
9 10 9 9 9 9 8 7 6 6 5 6 6 5 5 4 4 4 3 3 3 4 5 6 6 6 7 8 8 8 8 7 8 8 8 8 8 8 7 7 7 8 9
9 9 9 9 8 8 8 7 6 5 5 6 6 6 5 5 4 4 3 3 3 3 4 4 5 6 6 8 8 7 7 6 7 7 8 8 8 8 8 8 7 7 7
8 8 8 8 8 8 7 7 6 6 6 7 7 7 5 5 5 4 3 3 3 3 2 2 4 5 6 7 8 8 6 6 6 6 7 9 8 8 9 8 8 8 7
9 8 8 7 8 8 7 6 6 6 7 7 7 6 5 5 5 4 3 2 2 2 2 2 3 3 5 7 9 9 6 6 6 6 6 6 9 9 9 8 7 8 6
8 8 8 8 8 7 7 7 7 8 7 7 6 6 5 4 3 3 3 1 1 2 2 2 2 2 3 5 7 8 8 6 6 6 5 6 8 9 8 7 7 6 5
8 7 8 8 8 7 7 7 8 8 7 6 5 5 5 4 3 2 2 1 1 1 2 2 2 2 2 3 5 6 6 6 5 4 5 6 6 7 7 8 7 6 5
7 6 7 7 8 8 7 7 7 7 6 5 5 5 4 4 3 2 2 1 1 2 2 2 2 2 2 2 3 3 4 4 4 3 4 5 5 4 4 5 5 4 4
7 6 6 7 8 8 7 7 7 6 5 5 4 4 4 4 3 2 2 2 2 2 2 2 3 3 3 3 3 3 3 4 4 3 3 3 3 3 3 3 3 4 4
7 7 7 7 8 7 7 7 7 5 4 4 4 3 3 3 2 2 3 3 2 3 3 3 2 2 2 2 3 3 3 3 5 3 3 4 4 4 4 4 4 4 4
Wind_Direction
269 292 290 291 295 290 281 266 257 252 238 227 226 221 212 214 220 209 208 200 193 184 176 174 178 180 180 178 176 171 162 158 154 147 140 129 145 148 161 163 164 155 157
278 294 304 305 296 284 277 270 261 248 235 233 231 223 227 215 217 212 212 204 195 183 177 175 177 181 181 180 179 173 171 168 173 169 165 173 185 188 188 182 183 177 168
263 278 288 287 287 283 276 266 256 251 240 235 223 218 216 205 209 218 211 201 198 190 183 184 181 182 185 185 185 182 183 180 182 184 181 182 192 171 184 190 189 188 185
267 274 280 282 278 275 273 265 257 252 243 227 219 215 214 212 219 213 211 206 199 193 185 184 185 185 187 190 190 190 188 184 183 187 205 214 166 178 176 187 192 196 198
267 273 277 280 276 272 270 263 255 250 245 232 224 219 221 220 217 205 206 202 203 199 192 185 185 188 191 191 194 192 192 193 190 187 185 189 185 196 194 189 189 199 205
281 277 281 287 282 274 267 263 256 250 243 234 229 225 223 219 218 214 206 202 205 206 201 194 191 188 190 193 198 198 198 199 198 194 191 191 189 193 199 195 193 201 203
293 290 292 288 285 273 264 258 253 247 240 234 231 232 229 224 221 222 212 206 208 214 209 201 197 194 193 192 198 199 201 202 199 201 200 200 206 197 202 202 194 202 203
304 301 297 292 287 273 258 250 247 245 240 236 237 236 233 231 230 229 221 213 214 216 213 207 201 198 195 192 195 199 202 204 202 206 205 203 205 199 199 205 195 194 208
308 304 306 304 294 283 268 248 242 243 241 239 240 239 235 236 237 234 226 217 219 219 213 209 203 199 198 196 196 200 201 201 203 206 209 209 205 203 203 205 208 205 210
315 312 310 309 305 294 280 260 244 241 245 241 241 242 237 239 242 231 224 218 217 218 214 211 204 199 198 196 197 201 204 204 206 205 207 210 211 203 201 206 214 219 216
320 315 310 309 309 309 296 260 251 252 250 248 247 247 242 243 245 235 230 221 216 215 211 207 204 202 199 198 199 201 201 203 206 206 208 209 207 205 206 205 213 217 213
320 319 317 316 319 320 315 288 262 255 255 255 253 249 246 245 241 240 237 224 216 215 211 206 203 205 205 203 203 203 204 205 206 207 208 212 208 209 209 206 216 221 215
323 324 325 321 317 316 317 313 296 280 266 257 254 252 248 244 240 242 243 231 222 215 212 207 205 207 209 208 208 207 207 208 210 209 209 212 207 213 212 208 214 219 215
323 324 323 320 314 312 311 312 311 304 287 271 267 268 258 250 247 246 245 234 224 216 212 211 208 208 209 209 210 210 209 209 212 214 214 214 213 214 211 212 214 213 210
324 324 321 319 317 315 314 312 310 310 305 288 276 273 267 260 259 250 245 229 219 218 212 210 210 207 207 208 209 211 209 209 211 214 218 219 215 218 214 217 216 210 210
320 322 322 320 317 314 312 309 308 308 305 295 287 285 279 268 261 254 246 226 216 213 210 211 209 208 209 206 207 211 211 210 210 212 215 215 213 214 213 219 220 213 210
315 318 316 314 315 314 309 305 304 302 296 292 291 290 282 276 267 253 249 234 217 212 213 216 213 213 211 202 203 208 214 213 213 212 211 214 215 214 216 216 218 220 218
312 313 313 312 312 312 311 307 303 299 295 292 292 293 287 279 274 255 247 252 239 220 216 216 215 215 213 200 202 204 214 216 217 216 215 216 219 217 212 214 221 225 223
306 306 306 306 307 310 313 311 308 305 300 297 297 294 288 283 274 261 248 245 244 234 227 215 205 207 211 200 202 201 213 216 218 218 219 218 222 210 203 209 216 225 229
309 308 307 308 309 313 314 310 308 307 301 299 297 292 285 280 275 271 262 253 243 236 198 191 199 203 209 201 202 202 209 213 214 216 219 218 220 211 204 210 213 223 230
314 316 314 311 311 313 311 305 306 304 303 303 298 296 291 283 276 278 273 254 237 215 181 186 200 205 207 198 197 202 208 209 213 217 218 216 209 212 210 216 223 226 227
316 319 316 314 316 318 313 307 305 306 308 305 303 303 299 293 283 280 280 260 224 198 184 188 200 210 209 203 195 202 218 218 215 217 218 215 202 206 210 217 214 208 211
313 315 314 313 316 317 315 307 308 310 308 311 311 309 306 300 294 282 274 260 231 208 199 196 206 211 214 209 200 206 213 219 224 218 206 204 198 202 209 204 202 203 208
311 313 312 313 315 318 314 307 310 314 313 313 314 314 310 311 306 300 277 264 252 227 215 215 218 222 214 205 195 197 202 207 213 204 184 180 177 186 196 201 209 216 215
307 309 310 311 314 320 321 322 320 320 316 313 315 316 312 312 314 311 295 276 275 268 239 225 220 212 218 222 210 200 205 208 202 185 178 187 182 189 200 205 207 208 211
307 310 311 312 315 320 321 325 325 322 315 311 314 315 315 318 323 327 332 335 308 326 309 283 258 249 245 219 205 207 204 197 180 177 191 199 201 206 210 211 212 213 215
Height
1502 1501 1501 1501 1501 1501 1501 1501 1502 1502 1503 1504 1505 1506 1508 1510 1512 1513 1515 1517 1519 1522 1524 1527 1530 1532 1534 1537 1539 1541 1543 1546 1548 1550 1552 1554 1555 1556 1557 1558 1560 1561 1562
1498 1498 1497 1497 1498 1498 1498 1498 1498 1499 1500 1501 1502 1503 1505 1507 1509 1510 1511 1513 1515 1518 1521 1524 1526 1528 1531 1533 1536 1538 1540 1542 1545 1547 1550 1553 1555 1553 1555 1556 1557 1558 1559
1496 1495 1495 1494 1494 1494 1494 1494 1495 1495 1496 1498 1499 1500 1501 1503 1505 1507 1508 1510 1512 1514 1517 1520 1523 1525 1527 1529 1532 1534 1537 1539 1542 1544 1547 1549 1550 1551 1553 1553 1555 1556 1557
1494 1493 1493 1492 1491 1491 1491 1490 1491 1492 1493 1494 1495 1496 1498 1499 1501 1503 1504 1506 1508 1511 1513 1516 1519 1521 1523 1526 1528 1530 1533 1536 1537 1540 1542 1545 1546 1549 1550 1551 1552 1553 1554
1492 1491 1490 1490 1489 1488 1487 1487 1488 1488 1489 1490 1491 1493 1494 1495 1498 1499 1501 1503 1505 1507 1509 1512 1515 1517 1519 1522 1524 1527 1529 1532 1534 1536 1538 1541 1543 1545 1547 1548 1549 1550 1551
1489 1488 1488 1487 1486 1485 1484 1484 1484 1484 1485 1486 1487 1489 1490 1491 1493 1496 1497 1499 1501 1503 1505 1508 1511 1513 1516 1518 1520 1523 1526 1528 1531 1533 1535 1537 1539 1541 1543 1544 1545 1547 1548
1487 1486 1484 1483 1482 1481 1481 1480 1480 1480 1481 1482 1483 1485 1486 1488 1489 1491 1493 1495 1497 1499 1501 1504 1507 1509 1512 1514 1517 1519 1522 1524 1527 1529 1531 1533 1535 1538 1540 1542 1543 1544 1545
1485 1483 1482 1480 1479 1478 1478 1477 1477 1477 1478 1478 1479 1481 1483 1484 1486 1488 1490 1491 1493 1495 1497 1500 1502 1505 1508 1510 1513 1515 1518 1520 1523 1525 1527 1529 1532 1534 1536 1538 1540 1541 1542
1483 1480 1479 1477 1476 1475 1474 1474 1474 1474 1475 1476 1477 1477 1479 1480 1482 1484 1486 1488 1489 1491 1494 1496 1498 1501 1503 1506 1509 1511 1514 1517 1519 1521 1524 1525 1528 1530 1532 1534 1536 1538 1538
1481 1478 1476 1475 1473 1472 1471 1471 1471 1471 1472 1472 1473 1474 1475 1477 1478 1479 1481 1483 1485 1487 1489 1491 1493 1496 1499 1502 1504 1507 1510 1512 1515 1517 1520 1521 1523 1525 1528 1530 1532 1534 1535
1480 1477 1475 1473 1471 1470 1469 1468 1469 1469 1469 1469 1470 1471 1472 1473 1474 1475 1476 1478 1480 1482 1484 1486 1489 1491 1494 1497 1500 1502 1505 1508 1510 1512 1515 1517 1519 1521 1523 1525 1527 1529 1531
1478 1476 1473 1471 1469 1468 1466 1466 1466 1466 1466 1466 1467 1467 1468 1468 1469 1470 1471 1474 1475 1477 1479 1481 1483 1486 1489 1492 1494 1497 1500 1503 1505 1507 1510 1512 1515 1516 1518 1520 1522 1524 1526
1477 1474 1472 1470 1467 1465 1464 1463 1463 1463 1463 1463 1463 1463 1463 1463 1464 1465 1466 1468 1470 1472 1474 1476 1479 1481 1484 1487 1489 1492 1495 1498 1500 1503 1504 1507 1509 1511 1513 1515 1517 1519 1521
1476 1473 1471 1468 1466 1464 1462 1460 1460 1460 1460 1460 1459 1458 1458 1459 1459 1460 1461 1462 1464 1466 1469 1471 1474 1476 1479 1481 1484 1487 1490 1492 1495 1497 1499 1502 1504 1506 1508 1510 1512 1514 1515
1475 1472 1470 1467 1464 1462 1460 1458 1457 1457 1457 1456 1455 1455 1455 1455 1455 1455 1456 1457 1459 1461 1463 1466 1468 1470 1473 1475 1478 1481 1484 1486 1489 1491 1494 1496 1498 1500 1503 1505 1506 1508 1510
1473 1470 1468 1465 1462 1460 1458 1456 1455 1454 1454 1453 1452 1451 1451 1451 1451 1451 1452 1453 1454 1456 1458 1460 1462 1464 1467 1469 1472 1475 1478 1480 1483 1485 1488 1490 1493 1495 1497 1499 1501 1503 1504
1472 1469 1466 1463 1461 1459 1457 1454 1453 1452 1451 1450 1449 1449 1448 1448 1447 1448 1448 1448 1449 1451 1452 1454 1456 1458 1461 1464 1467 1470 1472 1475 1477 1480 1482 1484 1486 1489 1491 1492 1495 1496 1498
1471 1468 1465 1462 1460 1457 1455 1453 1451 1450 1448 1447 1447 1446 1445 1445 1444 1444 1443 1443 1444 1445 1446 1448 1450 1453 1455 1458 1461 1464 1467 1469 1472 1474 1476 1478 1480 1483 1485 1486 1488 1489 1491
1470 1467 1464 1461 1458 1455 1453 1450 1449 1447 1446 1445 1444 1443 1442 1441 1441 1440 1439 1439 1439 1440 1440 1441 1444 1447 1449 1452 1455 1458 1461 1463 1466 1468 1471 1473 1475 1477 1479 1481 1482 1483 1485
1468 1465 1462 1459 1456 1453 1451 1448 1446 1445 1444 1443 1441 1440 1439 1438 1437 1436 1436 1435 1435 1435 1436 1438 1440 1442 1445 1447 1450 1453 1456 1458 1460 1463 1465 1467 1469 1471 1473 1475 1476 1477 1479
1465 1462 1460 1457 1454 1452 1449 1447 1445 1443 1442 1440 1439 1438 1437 1435 1434 1433 1433 1432 1432 1433 1433 1435 1437 1439 1441 1443 1446 1448 1451 1453 1455 1457 1459 1461 1463 1466 1468 1469 1471 1472 1474
1463 1460 1457 1455 1452 1450 1447 1445 1443 1441 1439 1438 1436 1435 1434 1433 1433 1432 1431 1431 1430 1430 1431 1433 1434 1436 1438 1439 1441 1443 1446 1448 1450 1451 1453 1455 1458 1460 1462 1464 1465 1467 1469
1461 1458 1455 1452 1450 1447 1445 1442 1441 1439 1437 1435 1434 1433 1432 1432 1431 1430 1429 1428 1428 1428 1429 1430 1431 1433 1434 1435 1436 1438 1440 1442 1444 1446 1447 1450 1452 1454 1456 1458 1460 1462 1464
1459 1456 1453 1450 1447 1445 1442 1440 1438 1437 1435 1433 1432 1432 1431 1430 1429 1429 1428 1427 1427 1427 1427 1427 1428 1429 1430 1431 1433 1434 1436 1438 1439 1441 1443 1445 1447 1449 1451 1453 1454 1456 1458
1456 1453 1451 1448 1445 1442 1440 1438 1436 1434 1433 1431 1431 1430 1430 1429 1428 1427 1427 1427 1427 1427 1427 1427 1427 1428 1428 1430 1431 1431 1433 1434 1436 1437 1439 1441 1443 1444 1446 1448 1449 1451 1453
1453 1451 1448 1446 1443 1440 1438 1436 1434 1432 1431 1430 1429 1429 1428 1427 1427 1426 1426 1426 1426 1426 1426 1426 1426 1426 1427 1428 1428 1429 1430 1432 1433 1434 1435 1437 1438 1440 1441 1443 1445 1446 1448